Regional Weather Roundup
Issued by NWS

Home | Current Version | Previous Version | Graphics & Text | Print | Product List | Glossary On
Versions: 1 2 3 4 5 6 7 8 9 10 11 12 13 14 15 16 17 18 19 20 21 22 23 24 25 26 27
000
ASUS45 KSLC 271010
RWRUT

UTAH REGIONAL WEATHER ROUNDUP
NATIONAL WEATHER SERVICE SALT LAKE CITY UT
400 AM MDT MON MAR 27 2017

UTZ001>011-023>025-271100-

NORTHERN UTAH

CITY           SKY/WX    TMP DP  RH WIND       PRES   REMARKS
BRIGHAM CITY     N/A     48  33  55 SE5       29.89F
HILL AFB       MIX PCPN  45  32  61 SE10      29.89F
LOGAN          CLOUDY    45  36  70 S12       29.90F
OGDEN          CLOUDY    46  32  58 SE7       29.88F
SALT LAKE CITY CLOUDY    49  33  54 E3        29.88F
WENDOVER       PTCLDY    44  36  73 CALM      29.87F
HEBER CITY     CLOUDY    37  32  81 CALM      29.92S

$$

UTZ011>015-024>027-271100-

CENTRAL/NORTHEAST UTAH

CITY           SKY/WX    TMP DP  RH WIND       PRES   REMARKS
PROVO AIRPORT  CLOUDY    45  35  68 CALM      29.90F
MOAB/CANYONLAN CLOUDY    41  28  60 CALM      29.89F
DELTA          CLOUDY    45  32  61 S9        29.89F
PRICE          CLOUDY    41  30  65 CALM      29.91F
RICHFIELD      PTCLDY    39  36  87 CALM      29.94F
ROOSEVELT      CLOUDY    46  32  57 E3        29.94F
VERNAL         CLOUDY    40  33  76 W3        29.93F

$$

UTZ013>016-019>022-027-271100-

SOUTHERN UTAH

CITY           SKY/WX    TMP DP  RH WIND       PRES   REMARKS
BRYCE CANYON   CLOUDY    31  27  85 SW5       29.99F WCI  26
CEDAR CITY     MOCLDY    43  31  62 S8        29.91F
MILFORD        CLEAR     42  33  70 SW7       29.89F
ST GEORGE      PTSUNNY   53  32  44 E6        29.88F
HANKSVILLE     CLOUDY    41  28  60 CALM      29.92F
KANAB          CLOUDY    39  34  81 NE5       29.98F
BLANDING       PTCLDY    37  21  52 CALM      30.04S

$$

REGIONAL REPORTS     COLORADO/ARIZONA

CITY           SKY/WX    TMP DP  RH WIND       PRES   REMARKS
CRAIG, CO      CLOUDY    30  25  81 CALM      29.97F
GRAND JUNCTION CLOUDY    47  30  51 E10       29.93F
RIFLE, CO      CLOUDY    37  28  70 CALM      29.96F
MONTROSE, CO   PTCLDY    40  30  67 E13       29.98F WCI  32
CORTEZ, CO     CLEAR     29  27  92 CALM      29.99F
COLORADO CITY  PTSUNNY   41  36  81 CALM      29.96F
PAGE, AZ       MOCLDY    50  32  50 CALM      29.92F
GRAND CANYON   CLEAR     27  25  92 CALM      30.01F
KINGMAN, AZ    PTCLDY    48  28  46 S6        29.91F
FLAGSTAFF, AZ  CLEAR     30  24  78 CALM      30.03F

$$

REGIONAL REPORTS    NEVADA/IDAHO/WYOMING

CITY           SKY/WX    TMP DP  RH WIND       PRES   REMARKS
LAS VEGAS, NV  PTCLDY    63  37  38 S10       29.81F
ELY, NY        CLEAR     37  30  75 S10       29.90F WCI  30
ELKO, NV       MOCLDY    36  31  82 S7        29.91R WCI  30
POCATELLO, ID  CLOUDY    38  35  89 CALM      29.88F
BURLEY, ID     CLOUDY    37  35  92 CALM      29.85F
EVANSTON, WY   CLOUDY    34  25  69 W7        29.92F WCI  28
ROCK SPRINGS,  CLOUDY    37  26  64 SW6       29.95S WCI  32
KEMMERER, WY     N/A     30  27  86 N5        29.94F WCI  25

$$




USA.gov is the U.S. government's official web portal to all federal, state and local government web resources and services.